Weather History for St. Inigoes, MD

Change the Weather History Date:

Monday, March 25, 2013

  Actual Average (KNHK) Record (KNHK)
Temperature  
Mean Temperature 36 °F -  
Max Temperature 39 °F 55 °F 74 °F (1988)
Min Temperature 33 °F 38 °F 25 °F (2009)
Degree Days  
Heating Degree Days 29    
Moisture  
Dew Point 33 °F    
Average Humidity 89    
Maximum Humidity 96    
Minimum Humidity 81    
Precipitation  
Precipitation 0.45 in - - ()
Sea Level Pressure  
Sea Level Pressure 29.57 in    
Wind  
Wind Speed 7 mph (NNW)    
Max Wind Speed 9 mph    
Max Gust Speed -    
Averages and records for this station are not official NWS values.
T = Trace of Precipitation, MM = Missing Value Source: NWS Daily Summary

Daily Weather History Graph

Daily Weather History Graph

Search for Another Location

Airport:

Trip Planner

Search our weather history database for the weather conditions in past years. The results will help you decide how hot, cold, wet, or windy it might be!

Date:

Astronomy

Mar. 25, 2013 Rise Set
Actual Time 7:01 AM EDT 7:22 PM EDT
Civil Twilight 6:34 AM EDT 7:48 PM EDT
Nautical Twilight 6:03 AM EDT 8:19 PM EDT
Astronomical Twilight 5:32 AM EDT 8:51 PM EDT
Moon 5:52 PM EDT 5:42 AM EDT
Length of Visible Light 13h 14m
Length of Day
12h 21m
Waxing Gibbous, 96% of the Moon is Illuminated
Mar 25
Waxing Gibbous
Mar 27
Full
Apr 3
Last Quarter
Apr 10
New
Apr 18
First Quarter

Hourly Weather History & Observations

Time (EDT) Temp. Windchill Dew Point Humidity Pressure Visibility Wind Dir Wind Speed Gust Speed Precip Events Conditions
12:12 AM 33.8 °F 27.0 °F 30.2 °F 87% 29.63 in - NE 8.1 mph - 0.01 in Snow Light Snow
12:22 AM 33.8 °F 26.4 °F 30.2 °F 87% 29.62 in - NE 9.2 mph - 0.02 in   Overcast
12:53 AM 34.0 °F 27.2 °F 30.9 °F 89% 29.60 in - NE 8.1 mph - 0.03 in   Overcast
1:07 AM 33.8 °F 27.0 °F 30.2 °F 87% 29.59 in - NE 8.1 mph - N/A   Overcast
1:53 AM 35.1 °F 28.6 °F 32.0 °F 89% 29.57 in - NE 8.1 mph - N/A   Overcast
2:53 AM 35.1 °F 28.6 °F 33.1 °F 92% 29.56 in - ENE 8.1 mph - 0.02 in Rain Light Rain
3:08 AM 35.6 °F 29.2 °F 33.8 °F 93% 29.55 in - NE 8.1 mph - 0.01 in Rain Light Rain
3:53 AM 36.0 °F 31.1 °F 33.1 °F 89% 29.52 in - ENE 5.8 mph - 0.02 in Rain Light Rain
4:53 AM 35.1 °F 28.6 °F 33.1 °F 92% 29.55 in - NW 8.1 mph - 0.05 in Rain Rain
5:23 AM 33.8 °F 29.6 °F 30.2 °F 87% 29.53 in - Variable 4.6 mph - 0.02 in Snow Snow
5:53 AM 33.1 °F 28.7 °F 30.9 °F 92% 29.52 in - Variable 4.6 mph - 0.04 in Snow Light Snow
6:53 AM 33.1 °F 27.7 °F 32.0 °F 96% 29.52 in - Variable 5.8 mph - 0.04 in Snow Light Snow
7:53 AM 33.1 °F - 30.9 °F 92% 29.52 in - Calm Calm - 0.03 in Snow Snow
8:05 AM 33.8 °F 27.7 °F 30.2 °F 87% 29.51 in - North 6.9 mph - 0.01 in Snow Snow
8:45 AM 33.8 °F 28.6 °F 32.0 °F 93% 29.51 in - Variable 5.8 mph - 0.04 in Snow Light Snow
8:53 AM 34.0 °F 29.8 °F 32.0 °F 92% 29.50 in - North 4.6 mph - 0.05 in Snow Light Snow
9:30 AM 35.6 °F 30.7 °F 32.0 °F 87% 29.50 in - North 5.8 mph - 0.03 in   Overcast
9:53 AM 35.1 °F 29.3 °F 32.0 °F 89% 29.49 in - North 6.9 mph - 0.03 in Rain Light Rain
10:53 AM 37.0 °F 31.6 °F 34.0 °F 89% 29.50 in - Variable 6.9 mph - 0.00 in   Overcast
11:53 AM 37.0 °F 31.6 °F 33.1 °F 86% 29.50 in - NW 6.9 mph - 0.01 in Rain Light Rain
12:53 PM 37.0 °F 31.0 °F 34.0 °F 89% 29.50 in - WNW 8.1 mph - 0.02 in Rain Light Rain
1:53 PM 37.9 °F 31.5 °F 34.0 °F 86% 29.50 in - WNW 9.2 mph - 0.00 in Rain Light Rain
2:53 PM 39.0 °F 33.4 °F 34.0 °F 82% 29.49 in - NW 8.1 mph - 0.00 in   Overcast
3:24 PM 39.2 °F 35.0 °F 33.8 °F 81% 29.50 in - Variable 5.8 mph - 0.00 in   Overcast
3:53 PM 39.0 °F 34.8 °F 34.0 °F 82% 29.50 in - NW 5.8 mph - 0.00 in   Overcast
4:48 PM 37.4 °F 32.8 °F 33.8 °F 87% 29.52 in - NW 5.8 mph - N/A   Overcast
4:53 PM 37.9 °F 33.5 °F 34.0 °F 86% 29.53 in - NW 5.8 mph - 0.00 in Rain Light Rain
5:28 PM 37.4 °F 31.4 °F 33.8 °F 87% 29.54 in - WNW 8.1 mph - 0.01 in Rain Light Rain
5:53 PM 37.0 °F 31.6 °F 33.1 °F 86% 29.56 in - NW 6.9 mph - 0.02 in Rain Light Rain
6:27 PM 37.4 °F 30.8 °F 33.8 °F 87% 29.58 in - NW 9.2 mph - 0.02 in Rain Light Rain
6:53 PM 37.0 °F 33.3 °F 33.1 °F 86% 29.60 in - NW 4.6 mph - 0.03 in Rain Light Rain
7:53 PM 36.0 °F 33.3 °F 33.1 °F 89% 29.64 in - NNW 3.5 mph - 0.01 in Rain Light Rain
8:17 PM 35.6 °F 30.7 °F 33.8 °F 93% 29.65 in - NW 5.8 mph - 0.00 in Rain Light Rain
8:24 PM 35.6 °F 31.7 °F 33.8 °F 93% 29.65 in - NW 4.6 mph - 0.00 in Rain Light Rain
8:53 PM 36.0 °F - 33.1 °F 89% 29.66 in - Calm Calm - 0.01 in Rain Light Rain
9:02 PM 35.6 °F 32.8 °F 33.8 °F 93% 29.67 in - NW 3.5 mph - 0.00 in Rain Light Rain
9:36 PM 35.6 °F - 33.8 °F 93% 29.68 in - Calm Calm - 0.01 in Rain Light Rain
9:53 PM 36.0 °F 33.3 °F 33.1 °F 89% 29.68 in - WNW 3.5 mph - 0.01 in Rain Light Rain
10:50 PM 35.6 °F 31.7 °F 33.8 °F 93% 29.69 in - NW 4.6 mph - 0.03 in Rain Light Rain
10:53 PM 36.0 °F 33.3 °F 33.1 °F 89% 29.69 in - NW 3.5 mph - 0.03 in Rain Light Rain
11:53 PM 36.0 °F 33.3 °F 33.1 °F 89% 29.70 in - NW 3.5 mph - 0.00 in   Overcast